Stations météo

réclame
Mon MeteoGroup
Plymouth, Grande-Bretagne (3827): Température de l'air & dewpoint: 18.11.2020 23:00:00 - 24.11.2020 23:00:00 (GMT)Plymouth, Grande-Bretagne (3827): Vitesse du vent & gusts: 18.11.2020 23:00:00 - 24.11.2020 23:00:00 (GMT)Plymouth, Grande-Bretagne (3827): Direction du vent: 18.11.2020 23:00:00 - 24.11.2020 23:00:00 (GMT)Plymouth, Grande-Bretagne (3827): reduced air pressure: 18.11.2020 23:00:00 - 24.11.2020 23:00:00 (GMT)Plymouth, Grande-Bretagne (3827): visibility: 18.11.2020 23:00:00 - 24.11.2020 23:00:00 (GMT)Plymouth, Grande-Bretagne (3827): Quantités de précipitations: 18.11.2020 23:00:00 - 24.11.2020 23:00:00 (GMT)
Date & Time tt [°C] td [°C] ff [km/h] ff [knt] fx [km/h] fx [knt] dd ppp [hPa] vv [km] rr [mm]
24.11.2020 23:00:00 12,3 11,8 37 20 52 28 S 1007,7 7 0,2
24.11.2020 22:00:00 12,3 11,6 37 20 50 27 S 1008,3 8 0,2
24.11.2020 21:00:00 12,4 11,3 29 16 - - S 1008,7 12 0,0
24.11.2020 20:00:00 12,4 11,1 34 18 46 25 S 1009,0 12 0,0
24.11.2020 19:00:00 12,2 11,0 28 15 - - S 1009,5 11 0,0
24.11.2020 18:00:00 12,3 10,9 31 17 46 25 S 1009,8 13 0,0
24.11.2020 17:00:00 12,5 11,1 29 16 48 26 S 1010,0 13 0,0
24.11.2020 16:00:00 12,3 11,0 26 14 - - SSE 1010,1 17 0,0
24.11.2020 15:00:00 12,2 10,7 26 14 - - SSE 1010,6 19 0,0
24.11.2020 14:00:00 12,2 10,4 24 13 46 25 SSE 1011,9 20 0,0
24.11.2020 13:00:00 12,2 10,3 24 13 46 25 S 1013,1 19 0,0
24.11.2020 12:00:00 12,5 10,6 26 14 - - SSE 1014,1 20 0,0
24.11.2020 11:00:00 12,4 10,2 21 11 - - SSE 1015,2 25 0,0
24.11.2020 10:00:00 11,6 9,9 21 11 - - SSE 1015,8 23 0,0
24.11.2020 09:00:00 11,1 10,0 21 11 - - SSE 1016,5 19 0,0
24.11.2020 08:00:00 10,7 9,8 21 11 - - SSE 1016,8 16 0,0
24.11.2020 07:00:00 10,9 9,6 29 16 - - S 1017,5 19 0,0
24.11.2020 06:00:00 10,5 9,3 21 11 - - S 1017,7 - 0,0
24.11.2020 05:00:00 10,8 9,6 28 15 46 25 S 1018,5 18 0,0
24.11.2020 04:00:00 11,3 10,3 34 18 52 28 S 1019,1 16 0,0
24.11.2020 03:00:00 11,3 10,3 31 17 - - S 1020,1 14 0,2
24.11.2020 02:00:00 10,9 10,0 26 14 - - S 1021,0 23 0,0
24.11.2020 01:00:00 10,8 9,8 26 14 - - SSW 1022,1 9 0,0
24.11.2020 00:00:00 11,3 9,7 28 15 - - SSW 1022,8 28 0,2
23.11.2020 23:00:00 10,9 10,0 31 17 - - SSW 1023,4 12 0,0
23.11.2020 22:00:00 11,3 10,0 29 16 46 25 SSW 1023,8 35 0,0
23.11.2020 21:00:00 11,2 10,6 31 17 46 25 SSW 1024,2 6 0,0
23.11.2020 20:00:00 11,3 10,9 18 10 - - SW 1024,6 21 0,0
23.11.2020 19:00:00 10,6 10,2 29 16 - - SSW 1025,0 35 0,2
23.11.2020 18:00:00 10,8 10,7 24 13 - - SW 1025,2 1,6 0,4
23.11.2020 17:00:00 11,0 10,7 21 11 - - SSW 1025,5 6 0,0
23.11.2020 16:00:00 10,9 10,5 28 15 - - SSW 1025,6 35 0,0
23.11.2020 15:00:00 11,3 10,2 16 9 - - SSW 1025,9 12 0,0
23.11.2020 14:00:00 11,9 9,8 24 13 - - SSW 1026,3 40 0,0
23.11.2020 13:00:00 11,9 10,6 22 12 - - SSW 1026,7 40 0,0
23.11.2020 12:00:00 11,4 10,7 16 9 - - SSW 1027,4 40 0,0
23.11.2020 11:00:00 10,7 10,7 18 10 - - SSW 1027,9 35 0,0
23.11.2020 10:00:00 8,1 8,1 2 1 - - NNE 1028,1 10 0,0
23.11.2020 09:00:00 6,9 6,9 5 3 - - E 1028,0 7 0,0
23.11.2020 08:00:00 6,3 6,3 8 4 - - E 1027,9 9 0,0
23.11.2020 07:00:00 6,2 6,2 8 4 - - E 1027,9 20 0,0
23.11.2020 06:00:00 5,6 5,6 8 4 - - NE 1027,9 9 0,0
23.11.2020 05:00:00 5,5 5,5 5 3 - - ENE 1028,2 6 0,2
23.11.2020 04:00:00 5,6 5,6 5 3 - - ENE 1028,4 5 0,0
23.11.2020 03:00:00 5,1 5,1 11 6 - - E 1028,6 2,2 0,0
23.11.2020 02:00:00 4,7 4,7 8 4 - - ENE 1028,6 0,3 0,0
23.11.2020 01:00:00 5,4 5,3 8 4 - - E 1028,6 0,2 0,0
23.11.2020 00:00:00 5,6 5,5 5 3 - - N 1028,9 1,9 0,0
22.11.2020 23:00:00 6,5 6,4 8 4 - - ENE 1028,6 2,5 0,0
22.11.2020 22:00:00 6,6 6,4 4 2 - - W 1028,8 5 0,0
22.11.2020 21:00:00 7,6 7,4 9 5 - - NW 1028,4 12 0,0
22.11.2020 20:00:00 7,8 7,5 4 2 - - N 1028,4 15 0,0
22.11.2020 19:00:00 8,9 8,6 5 3 - - N 1027,9 18 0,0
22.11.2020 18:00:00 9,1 8,8 5 3 - - E 1027,5 12 0,0
22.11.2020 17:00:00 9,3 9,0 5 3 - - NE 1027,4 16 0,4
22.11.2020 16:00:00 9,9 9,5 9 5 - - N 1027,1 3,0 0,0
22.11.2020 15:00:00 10,2 9,9 4 2 - - NE 1026,9 10 0,4
22.11.2020 14:00:00 10,7 10,5 4 2 - - N 1027,2 3,9 0,4
22.11.2020 13:00:00 10,3 10,0 5 3 - - NNW 1027,7 2,6 1,0
22.11.2020 12:00:00 10,7 10,3 5 3 - - W 1028,0 1,2 0,2
22.11.2020 11:00:00 11,4 11,1 4 2 - - W 1028,1 9 0,0
22.11.2020 10:00:00 10,9 10,8 2 1 - - W 1027,8 28 0,0
22.11.2020 09:00:00 10,2 10,1 8 4 - - WSW 1027,7 23 0,0
22.11.2020 08:00:00 9,8 9,7 5 3 - - SW 1027,5 15 0,0
22.11.2020 07:00:00 9,8 9,6 4 2 - - WSW 1027,3 12 0,0
22.11.2020 06:00:00 9,9 9,6 4 2 - - W 1027,1 23 0,0
22.11.2020 05:00:00 10,3 10,0 8 4 - - NNW 1027,1 13 0,0
22.11.2020 04:00:00 10,8 10,7 8 4 - - NW 1026,7 35 0,2
22.11.2020 03:00:00 11,3 11,2 22 12 - - WSW 1026,8 8 0,0
22.11.2020 02:00:00 11,3 11,1 28 15 - - WSW 1026,6 13 0,0
22.11.2020 01:00:00 11,0 10,9 24 13 - - WSW 1026,8 6 0,4
22.11.2020 00:00:00 11,1 10,7 28 15 - - WSW 1026,9 2,6 0,0
21.11.2020 23:00:00 11,5 10,2 26 14 - - WSW 1027,0 26 0,0
21.11.2020 22:00:00 11,3 10,3 21 11 - - WSW 1027,2 24 0,0
21.11.2020 21:00:00 11,3 10,3 21 11 - - WSW 1027,3 21 0,0
21.11.2020 20:00:00 11,3 10,3 26 14 - - SW 1027,7 13 0,0
21.11.2020 19:00:00 11,2 10,4 28 15 - - WSW 1027,7 19 0,0
21.11.2020 18:00:00 10,9 10,3 29 16 - - WSW 1027,8 2,7 0,0
21.11.2020 17:00:00 11,3 10,3 24 13 - - WSW 1027,6 18 0,0
21.11.2020 16:00:00 10,8 10,3 26 14 - - WSW 1027,7 4,9 0,0
21.11.2020 15:00:00 10,9 10,3 26 14 - - WSW 1027,5 2,8 0,2
21.11.2020 14:00:00 11,3 10,0 26 14 - - WSW 1027,8 14 0,0
21.11.2020 13:00:00 11,3 10,3 22 12 - - WSW 1028,3 17 0,0
21.11.2020 12:00:00 11,2 9,9 26 14 46 25 WSW 1028,8 7 0,0
21.11.2020 11:00:00 11,8 9,1 29 16 - - WSW 1029,1 23 0,0
21.11.2020 10:00:00 11,5 8,7 29 16 46 25 WSW 1029,1 23 0,0
21.11.2020 09:00:00 11,6 8,3 35 19 46 25 WSW 1029,0 22 0,0
21.11.2020 08:00:00 11,6 8,5 29 16 48 26 WSW 1028,9 21 0,0
21.11.2020 07:00:00 11,5 8,1 31 17 - - WSW 1028,8 23 0,0
21.11.2020 06:00:00 11,3 8,6 28 15 48 26 WSW 1029,1 17 0,0
21.11.2020 05:00:00 11,4 8,6 29 16 - - WSW 1029,1 22 0,0
21.11.2020 04:00:00 11,5 8,2 31 17 46 25 WSW 1029,5 25 0,0
21.11.2020 03:00:00 11,3 8,1 31 17 46 25 WSW 1029,7 25 0,0
21.11.2020 02:00:00 11,2 8,4 28 15 - - WSW 1029,7 25 0,0
21.11.2020 01:00:00 11,0 9,6 22 12 - - WSW 1030,2 20 0,0
21.11.2020 00:00:00 10,3 9,6 26 14 - - WSW 1030,7 23 0,0
20.11.2020 23:00:00 10,1 9,2 22 12 48 26 WSW 1031,1 25 0,0
20.11.2020 22:00:00 10,8 8,4 26 14 - - WSW 1031,1 28 0,0
20.11.2020 21:00:00 10,6 8,4 24 13 48 26 W 1031,8 22 0,0
20.11.2020 20:00:00 11,0 8,6 26 14 - - WSW 1031,9 20 0,0
20.11.2020 19:00:00 11,1 9,7 22 12 - - WSW 1032,1 19 0,0
20.11.2020 18:00:00 10,8 9,6 22 12 - - WSW 1032,0 19 0,0
20.11.2020 17:00:00 10,9 10,0 26 14 - - WSW 1031,9 18 0,0
20.11.2020 16:00:00 10,9 10,6 21 11 - - WSW 1032,3 9 0,0
20.11.2020 15:00:00 10,4 10,2 26 14 - - WSW 1032,6 5 0,2
20.11.2020 14:00:00 10,3 10,0 24 13 - - SW 1033,1 14 0,0
20.11.2020 13:00:00 9,6 9,1 22 12 - - WSW 1033,9 30 0,2
20.11.2020 12:00:00 9,8 9,5 29 16 - - WSW 1034,6 3,6 0,2
20.11.2020 11:00:00 9,8 9,4 22 12 - - SW 1034,6 9 0,4
20.11.2020 10:00:00 10,2 9,7 22 12 - - WSW 1034,7 13 0,6
20.11.2020 09:00:00 9,6 9,0 18 10 - - WSW 1034,9 12 0,0
20.11.2020 08:00:00 9,3 9,0 22 12 - - WSW 1035,0 15 0,2
20.11.2020 07:00:00 6,6 6,1 2 1 - - NW 1035,2 8 1,0
20.11.2020 06:00:00 6,3 5,5 4 2 - - NE 1035,4 12 0,0
20.11.2020 05:00:00 5,9 4,5 5 3 - - E 1035,8 2,6 0,0
20.11.2020 04:00:00 5,5 4,0 8 4 - - E 1036,0 20 0,0
20.11.2020 03:00:00 5,5 3,9 5 3 - - E 1036,5 20 0,0
20.11.2020 02:00:00 5,0 3,8 5 3 - - E 1036,9 16 0,0
20.11.2020 01:00:00 5,5 3,8 4 2 - - ENE 1037,5 18 0,0
20.11.2020 00:00:00 5,1 3,4 2 1 - - NNE 1038,2 18 0,0
19.11.2020 23:00:00 5,0 2,5 5 3 - - NNW 1038,0 20 0,0
19.11.2020 22:00:00 6,2 3,3 8 4 - - WNW 1037,6 22 0,0
19.11.2020 21:00:00 7,0 3,5 11 6 - - W 1037,2 22 0,0
19.11.2020 20:00:00 7,4 3,7 11 6 - - W 1036,5 21 0,0
19.11.2020 19:00:00 7,6 4,1 13 7 - - W 1036,7 19 0,0
19.11.2020 18:00:00 7,3 3,9 9 5 - - W 1036,3 20 0,0
19.11.2020 17:00:00 8,1 3,2 13 7 - - NW 1036,3 23 0,0
19.11.2020 16:00:00 8,8 3,5 18 10 - - NW 1035,4 22 0,0
19.11.2020 15:00:00 9,5 3,2 26 14 - - NW 1034,9 25 0,0
19.11.2020 14:00:00 9,9 3,2 26 14 - - NW 1033,9 24 0,0
19.11.2020 13:00:00 10,6 4,7 22 12 52 28 WNW 1033,5 23 0,0
19.11.2020 12:00:00 10,1 3,7 34 18 52 28 NW 1033,2 23 0,0
19.11.2020 11:00:00 10,2 4,4 26 14 54 29 NW 1032,7 22 0,0
19.11.2020 10:00:00 9,6 4,1 29 16 46 25 NW 1031,5 22 0,0
19.11.2020 09:00:00 8,9 4,2 22 12 - - WNW 1030,4 20 0,0
19.11.2020 08:00:00 8,6 4,3 21 11 - - WNW 1029,1 20 0,0
19.11.2020 07:00:00 8,6 4,5 26 14 46 25 WNW 1027,9 18 0,0
19.11.2020 06:00:00 9,1 4,5 29 16 48 26 WNW 1026,5 19 0,0
19.11.2020 05:00:00 9,3 4,6 26 14 50 27 WNW 1026,2 19 0,0
19.11.2020 04:00:00 9,7 6,1 26 14 - - W 1025,6 17 0,0
19.11.2020 03:00:00 9,7 6,1 26 14 54 29 WNW 1024,6 19 0,0
19.11.2020 02:00:00 10,2 6,6 37 20 52 28 W 1023,7 16 0,0
19.11.2020 01:00:00 10,2 5,7 35 19 55 30 W 1023,2 16 0,0
19.11.2020 00:00:00 9,7 6,0 31 17 50 27 W 1022,8 15 0,0
18.11.2020 23:00:00 8,9 5,9 28 15 - - W 1022,5 17 0,0

tt = Température de l'air
td = dewpoint
ff = Vitesse du vent
fx = gusts
dd = Direction du vent
ppp = reduced air pressure
vv = visibility
rr = Quantités de précipitations

stations d'obs. à proximité